{"data":{"norad_id":68365,"intl_designator":"2026-061F","name":"RASSVET-3 6","alt_names":[],"object_type":"PAYLOAD","status":"ACTIVE","operator":null,"country":"CIS","launch_date":"2026-03-23","launch_site_code":"PLMSC","launch_vehicle":null,"mission":null,"orbit_class":"UNKNOWN","rcs_meters":null,"size_class":null,"mass_kg":null,"dimensions":null,"purposes":[],"wikipedia_slug":null,"has_3d_model":false,"image_url":null,"decayed_at":null,"tle_current":{"epoch":"2026-05-25T03:58:34.123008Z","epoch_age_seconds":64013,"freshness":"FRESH","line1":"1 68365U 26061F   26145.16567272  .00032597  00000+0  38938-3 0  9996","line2":"2 68365  82.2982  38.7560 0012422  63.3748 296.8779 15.60761228  9872","mean_motion":15.60761228,"eccentricity":0.0012422,"inclination_deg":82.2982,"raan_deg":38.756,"arg_perigee_deg":63.3748,"mean_anomaly_deg":296.8779,"bstar":0.00038938,"rev_number":987,"period_min":92.262671199569,"perigee_km":377.0552509412,"apogee_km":393.85872384347,"semimajor_km":6763.5939873923,"source":"CELESTRAK","updated_at":"2026-05-25T13:38:07.764974Z"}}}